Regional Weather Roundup
Issued by NWS

Home | Current Version | Previous Version | Graphics & Text | Print | Product List | Glossary On
Versions: 1 2 3 4 5 6 7 8 9 10 11 12 13 14 15 16 17 18 19 20 21 22 23 24 25 26 27 28 29 30 31 32 33 34 35 36 37 38 39 40 41 42 43 44 45 46 47 48 49 50
000
ASUS43 KFSD 240210
RWRSD

WEATHER ROUNDUP FOR SOUTH DAKOTA
NATIONAL WEATHER SERVICE SIOUX FALLS SD
900 PM CDT THU MAR 23 2017

NOTE: "FAIR" INDICATES FEW OR NO CLOUDS BELOW 12,000 FEET WITH NO
SIGNIFICANT WEATHER AND/OR OBSTRUCTIONS TO VISIBILITY.


SDZ001>005-009-010-012>017-240300-
NORTHWEST AND NORTH CENTRAL SOUTH DAKOTA

CITY           SKY/WX    TMP DP  RH WIND       PRES   REMARKS
BUFFALO          N/A     42  41  96 SW7       29.85R
FAITH            N/A     46  39  76 N17       29.85R
MOBRIDGE       CLOUDY    43  36  76 N12       29.80R
$$

SDZ012>016-024>037-041>051-057-063-072>074-240300-
SOUTHWEST AND SOUTH CENTRAL SOUTH DAKOTA

CITY           SKY/WX    TMP DP  RH WIND       PRES   REMARKS
RAPID CTY ARPT CLOUDY    44  39  82 N21G31    29.87R
PIERRE         PTCLDY    48  38  68 NE14      29.75R
CUSTER         CLOUDY    38  32  79 N13       29.84R
ELLSWORTH AFB  CLOUDY    44  40  86 N21       29.87
PHILIP         CLOUDY    48  39  71 N17       29.79R
PINE RIDGE     CLOUDY    47  45  93 N13G22    29.78R
SPEARFISH      LGT RAIN  39  39 100 N8        29.94R
WINNER         FAIR      48  45  89 NE9       29.68R
$$

SDZ004>011-016>023-039-040-240300-
NORTHEAST SOUTH DAKOTA

CITY           SKY/WX    TMP DP  RH WIND       PRES   REMARKS
ABERDEEN       MOCLDY    35  32  88 NE8       29.78R WCI  29
WATERTOWN      CLOUDY    36  35  96 NE5       29.76R FOG
BROOKINGS      LGT RAIN  41  40  96 E6        29.73R FOG
SISSETON         N/A     36  36 100 CALM      29.80R
$$

SDZ017-020-022-023-036>040-048>070-240300-
SOUTHEAST SOUTH DAKOTA

CITY           SKY/WX    TMP DP  RH WIND       PRES   REMARKS
SIOUX FALLS    CLOUDY    46  41  82 NE8       29.71R
HURON          CLOUDY    42  42 100 NE7       29.74R
CHAMBERLAIN    CLOUDY    47  47 100 NE6       29.73R FOG
MITCHELL       CLOUDY    47  46  97 N10       29.72R FOG
YANKTON        CLOUDY    54  45  71 NE8       29.66R
$$

ABBREVIATIONS USED IN REMARKS
   TC - TEMPERATURE IN CELSIUS
  WCI - WIND CHILL INDEX
   HX - HEAT INDEX
  VSB - VISIBILITY





USA.gov is the U.S. government's official web portal to all federal, state and local government web resources and services.